Regional Weather Roundup
Issued by NWS Sterling, VA

Home | Current Version | Previous Version | Graphics & Text | Print | Product List | Glossary On
Versions: 1 2 3 4 5 6 7 8 9 10 11 12 13 14 15 16 17 18 19 20 21 22 23 24 25 26 27 28 29 30 31 32 33 34 35 36 37 38 39 40 41 42 43 44 45 46 47 48 49 50
000
ASUS41 KLWX 101210
RWRLWX

REGIONAL WEATHER ROUNDUP
NATIONAL WEATHER SERVICE BALTIMORE MD/WASHINGTON DC
700 AM EST WED FEB 10 2016

Note: "FAIR" indicates few or no clouds below 12,000 feet
with no significant weather and/or obstructions to visibility.
 TC=TEMPERATURE CELSIUS

 * =Non NWS site. Station does not report precipitation (e.g. rain,
    snow, etc.), thunder, or fog.

DCZ001-MDZ009-015-VAZ040>042-051-053>054-101300-
WASHINGTON METRO

CITY           SKY/WX    TMP DP  RH WIND       PRES   REMARKS
WASHINGTON NAT MOCLDY    32  16  51 NW20G29   29.77R WCI  20
DULLES         MOCLDY    29  14  53 NW16      29.76R WCI  17
ANDREWS AFB    PTCLDY    31  16  55 NW15G24   29.74R WCI  20
FT BELVOIR     FAIR      31  16  54 W5        29.77R
QUANTICO       FAIR      31  19  61 W5        29.80R
COLLEGE PARK*  CLOUDY    32  19  59 W8G17     29.75R WCI  25
LEESBURG*      CLOUDY    32  21  64 W14G22    29.77R WCI  22
GAITHERSBURG*  CLOUDY    28  16  59 W12       29.76R WCI  18

$$

MDZ006>007-011-014-101300-
BALTIMORE METRO

CITY           SKY/WX    TMP DP  RH WIND       PRES   REMARKS
BWI AIRPORT    CLOUDY    30  19  63 W14G23    29.73R WCI  19
MD SCIENCE CTR   N/A     31  20  63 MISG      29.73R
MARTIN STATE   CLOUDY    30  27  86 W10       29.75R WCI  21
ANNAPOLIS      CLOUDY    31  20  63 NW9       29.74R WCI  23
FORT MEADE*    CLOUDY    30  21  69 W13       29.76R WCI  20

$$

MDZ012-015-019>023-101300-
MARYLAND EASTERN SHORE

CITY           SKY/WX    TMP DP  RH WIND       PRES   REMARKS
OCEAN CITY     LGT SNOW  29  26  89 W10G22    29.73R FOG     WCI  20
SALISBURY      LGT SNOW  29  27  92 W10       29.75R FOG     WCI  20
BAY BRIDGE AP*   N/A     32  21  64 W10G16    29.75R WCI  24
CAMBRIDGE*     CLOUDY    28  27  93 W7        29.75R
EASTON*        LGT SNOW  30  30 100 NW9       29.78R FOG     WCI  22

$$

MDZ017>025-101300-
SOUTHERN MARYLAND

CITY           SKY/WX    TMP DP  RH WIND       PRES   REMARKS
PATUXENT RIVER CLOUDY    29  24  82 W9        29.77R WCI  20
ST INIGOES     CLOUDY    31  25  78 W8        29.77R WCI  23
LEONARDTOWN*   CLOUDY    30  27  86 W5        29.78R

$$

MDZ003>005-101300-
NORTH CENTRAL MARYLAND

CITY           SKY/WX    TMP DP  RH WIND       PRES   REMARKS
FREDERICK*     CLOUDY    30  21  69 W12G17    29.77R WCI  21
HAGERSTOWN APT CLOUDY    28  16  60 W18G28    29.72R WCI  15
WESTMINSTER*   CLOUDY    27  25  93 W10       29.69R WCI  17

$$

MDZ501>502-101300-
WESTERN MARYLAND

CITY           SKY/WX    TMP DP  RH WIND       PRES   REMARKS
OAKLAND*       CLOUDY    14  12  92 W16G24    29.63R FOG     WCI  -2
CUMBERLAND*    CLOUDY    28  19  69 NW7       29.80R

$$

VAZ025>031-101300-
SHENANDOAH VALLEY

CITY           SKY/WX    TMP DP  RH WIND       PRES   REMARKS
WINCHESTER*    CLOUDY    30  16  55 W12G26    29.75R WCI  21
FRONT ROYAL*   PTSUNNY   28  14  54 W7        29.75R
LURAY*         CLOUDY    28  14  54 SW8       29.77R WCI  20
NEW MARKET*    CLOUDY    26  12  54 W6        29.76R
STAUNTON*      FAIR      25  14  64 SW5       29.79R
WAYNESBORO*    FAIR      22  10  58 W6        29.75R

$$

WVZ021-048>050-054>055-101300-
EASTERN WEST VIRGINIA PANHANDLE

CITY           SKY/WX    TMP DP  RH WIND       PRES   REMARKS
MARTINSBURG    CLOUDY    28  14  55 W18G24    29.74R WCI  15
PETERSBURG*    CLOUDY    26  13  58 CALM      29.78R

$$

VAZ036>039-050-101300-
CENTRAL FOOTHILLS

CITY           SKY/WX    TMP DP  RH WIND       PRES   REMARKS
CHARLOTTESVILL FAIR      28  11  48 VRB6      29.77R
CULPEPER*      FAIR      29  13  52 NW6       29.78R
ORANGE*        FAIR      28  16  59 SW6       29.79R
GORDONSVILLE*  PTSUNNY   26  14  61 SW5       29.77R
WARRENTON*     FAIR      25  21  86 CALM      29.77R

$$

VAZ055>057-101300-
NORTH AND CENTRAL PIEDMONT

CITY           SKY/WX    TMP DP  RH WIND       PRES   REMARKS
FREDERICKSBRG* FAIR      28  24  86 W3        29.78R
STAFFORD*      FAIR      28  20  74 NW3       29.82R

$$

NCZ024-NYZ072-PAZ021-071-VAZ022-071-101300-
OTHER REGIONAL OBSERVATIONS

CITY           SKY/WX    TMP DP  RH WIND       PRES   REMARKS
NEW YORK CITY  CLOUDY    33  27  78 W7        29.62R
PHILADELPHIA   LGT SNOW  31  26  82 W12       29.68R WCI  22
PITTSBURGH     FLURRIES  21  15  78 W10G18    29.75R WCI  10
ROANOKE        MOCLDY    23  10  57 W10       29.84R WCI  12
RICHMOND       FAIR      26  20  77 SW8       29.81R WCI  18
RALEIGH        PTCLDY    26  13  57 W5        29.90R

$$

ANZ530>537-101300-
MARINE OBSERVATIONS

STATION/POSITION TIME  TEMP    WIND        PRES
                       AIR SEA DIR/SP/G
                 (UTC) (F)     (DEG/KT/KT) (MB)
THOMAS PT LIGHT  NOT AVBL
BALT KEY BRIDGE  1100   30     260/ 14/ 16 1006.3R
COVE POINT       1100   29     310/  7/ 12 1007.8R
LEWISETTA        1100   30 40  280/  7/  8 1007.5R
SOLOMONS ISLAND  1100   30 41  280/  6/  9   N/A
PINEY POINT      1100          300/ 12/ 14   N/A

$$




USA.gov is the U.S. government's official web portal to all federal, state and local government web resources and services.